Previsão horária em Al Marfa

Hoje, 15 Junho, Terça-feira

Tempo Temperatura Precipitação Vento Pressão Humidade
00:00 +33°C° 0 mm 4 m/s 747 mmHg 59%
01:00 +33°C° 0 mm 3 m/s 747 mmHg 54%
02:00 +33°C° 0 mm 4 m/s 747 mmHg 49%
03:00 +33°C° 0 mm 5 m/s 747 mmHg 43%
04:00 +33°C° 0 mm 6 m/s 747 mmHg 38%
05:00 +33°C° 0 mm 6 m/s 747 mmHg 38%
06:00 +33°C° 0 mm 5 m/s 747 mmHg 38%
07:00 +34°C° 0 mm 5 m/s 748 mmHg 38%
08:00 +36°C° 0 mm 6 m/s 748 mmHg 33%
09:00 +40°C° 0 mm 6 m/s 748 mmHg 28%
10:00 +43°C° 0 mm 7 m/s 748 mmHg 22%
11:00 +44°C° 0 mm 6 m/s 748 mmHg 22%
12:00 +44°C° 0 mm 6 m/s 748 mmHg 21%
13:00 +45°C° 0 mm 6 m/s 747 mmHg 20%
14:00 +45°C° 0 mm 5 m/s 747 mmHg 19%
15:00 +45°C° 0 mm 5 m/s 747 mmHg 18%
16:00 +45°C° 0 mm 5 m/s 746 mmHg 16%
17:00 +42°C° 0 mm 4 m/s 746 mmHg 20%
18:00 +40°C° 0 mm 3 m/s 746 mmHg 24%
19:00 +38°C° 0 mm 2 m/s 746 mmHg 27%
20:00 +37°C° 0 mm 2 m/s 746 mmHg 30%
21:00 +35°C° 0 mm 2 m/s 747 mmHg 33%
22:00 +33°C° 0 mm 1 m/s 747 mmHg 36%
23:00 +33°C° 0 mm 1 m/s 747 mmHg 37%

Amanhã, 16 Junho, Quarta-feira

Tempo Temperatura Precipitação Vento Pressão Humidade
00:00 +32°C° 0 mm 1 m/s 746 mmHg 39%
01:00 +31°C° 0 mm 1 m/s 746 mmHg 40%
02:00 +32°C° 0 mm 2 m/s 746 mmHg 35%
03:00 +34°C° 0 mm 2 m/s 746 mmHg 30%
04:00 +34°C° 0 mm 3 m/s 746 mmHg 25%
05:00 +35°C° 0 mm 3 m/s 746 mmHg 23%
06:00 +35°C° 0 mm 4 m/s 747 mmHg 22%
07:00 +35°C° 0 mm 4 m/s 747 mmHg 20%
08:00 +38°C° 0 mm 4 m/s 747 mmHg 20%
09:00 +40°C° 0 mm 3 m/s 748 mmHg 19%
10:00 +44°C° 0 mm 3 m/s 748 mmHg 19%
11:00 +44°C° 0 mm 4 m/s 748 mmHg 19%
12:00 +45°C° 0 mm 5 m/s 747 mmHg 19%
13:00 +46°C° 0 mm 5 m/s 747 mmHg 19%
14:00 +45°C° 0 mm 5 m/s 747 mmHg 21%
15:00 +44°C° 0 mm 6 m/s 747 mmHg 23%
16:00 +44°C° 0 mm 6 m/s 747 mmHg 25%
17:00 +40°C° 0 mm 5 m/s 747 mmHg 34%
18:00 +37°C° 0 mm 5 m/s 747 mmHg 44%
19:00 +35°C° 0 mm 4 m/s 747 mmHg 54%
20:00 +34°C° 0 mm 4 m/s 748 mmHg 61%
21:00 +33°C° 0 mm 4 m/s 748 mmHg 67%
22:00 +33°C° 0 mm 5 m/s 748 mmHg 74%
23:00 +33°C° 0 mm 5 m/s 748 mmHg 69%

Depois de amanhã, 17 Junho, Quinta-feira

Tempo Temperatura Precipitação Vento Pressão Humidade
00:00 +32°C° 0 mm 4 m/s 748 mmHg 65%
01:00 +32°C° 0 mm 4 m/s 748 mmHg 60%
02:00 +32°C° 0 mm 5 m/s 748 mmHg 58%
03:00 +32°C° 0 mm 6 m/s 747 mmHg 56%
04:00 +32°C° 0 mm 6 m/s 747 mmHg 54%
05:00 +33°C° 0 mm 6 m/s 748 mmHg 54%
06:00 +33°C° 0 mm 7 m/s 748 mmHg 54%
07:00 +34°C° 0 mm 7 m/s 748 mmHg 55%
08:00 +36°C° 0 mm 7 m/s 748 mmHg 48%
09:00 +39°C° 0 mm 8 m/s 749 mmHg 42%
10:00 +40°C° 0 mm 8 m/s 749 mmHg 36%
11:00 +41°C° 0 mm 8 m/s 749 mmHg 35%
12:00 +42°C° 0 mm 9 m/s 748 mmHg 34%
13:00 +42°C° 0 mm 9 m/s 748 mmHg 34%
14:00 +42°C° 0 mm 9 m/s 748 mmHg 34%
15:00 +40°C° 0 mm 9 m/s 748 mmHg 34%
16:00 +40°C° 0 mm 9 m/s 748 mmHg 35%
17:00 +39°C° 0 mm 9 m/s 748 mmHg 41%
18:00 +37°C° 0 mm 8 m/s 748 mmHg 48%
19:00 +35°C° 0 mm 8 m/s 748 mmHg 54%
20:00 +34°C° 0 mm 7 m/s 748 mmHg 56%
21:00 +33°C° 0 mm 6 m/s 748 mmHg 59%
22:00 +33°C° 0 mm 5 m/s 748 mmHg 62%
23:00 +32°C° 0 mm 5 m/s 748 mmHg 61%

18 Junho, Sexta-feira

Tempo Temperatura Precipitação Vento Pressão Humidade
00:00 +32°C° 0 mm 5 m/s 748 mmHg 61%
01:00 +32°C° 0 mm 4 m/s 748 mmHg 61%
02:00 +32°C° 0 mm 5 m/s 748 mmHg 60%
03:00 +30°C° 0 mm 6 m/s 747 mmHg 59%
04:00 +30°C° 0 mm 6 m/s 747 mmHg 58%
05:00 +33°C° 0 mm 7 m/s 748 mmHg 57%
06:00 +34°C° 0 mm 7 m/s 748 mmHg 56%
07:00 +35°C° 0 mm 7 m/s 748 mmHg 55%
08:00 +37°C° 0 mm 8 m/s 748 mmHg 50%
09:00 +38°C° 0 mm 8 m/s 748 mmHg 46%
10:00 +39°C° 0 mm 8 m/s 748 mmHg 41%
11:00 +39°C° 0 mm 8 m/s 748 mmHg 40%
12:00 +39°C° 0 mm 8 m/s 748 mmHg 40%
13:00 +40°C° 0 mm 8 m/s 748 mmHg 39%
14:00 +39°C° 0 mm 8 m/s 748 mmHg 40%
15:00 +39°C° 0 mm 8 m/s 747 mmHg 41%
16:00 +38°C° 0 mm 8 m/s 747 mmHg 43%
17:00 +36°C° 0 mm 7 m/s 747 mmHg 49%
18:00 +35°C° 0 mm 7 m/s 747 mmHg 56%
19:00 +34°C° 0 mm 6 m/s 747 mmHg 62%
20:00 +33°C° 0 mm 6 m/s 748 mmHg 65%
21:00 +33°C° 0 mm 5 m/s 748 mmHg 68%
22:00 +32°C° 0 mm 5 m/s 748 mmHg 71%
23:00 +32°C° 0 mm 5 m/s 748 mmHg 74%

19 Junho, Sábado

Tempo Temperatura Precipitação Vento Pressão Humidade
00:00 +32°C° 0 mm 4 m/s 748 mmHg 76%
01:00 +30°C° 0 mm 4 m/s 748 mmHg 78%
02:00 +30°C° 0 mm 3 m/s 748 mmHg 80%
03:00 +30°C° 0 mm 3 m/s 748 mmHg 81%
04:00 +30°C° 0 mm 2 m/s 748 mmHg 83%
05:00 +31°C° 0 mm 2 m/s 748 mmHg 81%
06:00 +31°C° 0 mm 1 m/s 749 mmHg 79%
07:00 +32°C° 0 mm 1 m/s 749 mmHg 77%
08:00 +33°C° 0 mm 1 m/s 749 mmHg 70%
09:00 +36°C° 0 mm 2 m/s 750 mmHg 63%
10:00 +37°C° 0 mm 3 m/s 750 mmHg 55%
11:00 +38°C° 0 mm 3 m/s 750 mmHg 53%
12:00 +39°C° 0 mm 3 m/s 749 mmHg 50%
13:00 +41°C° 0 mm 4 m/s 749 mmHg 48%
14:00 +41°C° 0 mm 4 m/s 749 mmHg 48%
15:00 +41°C° 0 mm 4 m/s 748 mmHg 48%
16:00 +41°C° 0 mm 5 m/s 748 mmHg 48%
17:00 +39°C° 0 mm 5 m/s 748 mmHg 53%
18:00 +37°C° 0 mm 5 m/s 748 mmHg 59%
19:00 +35°C° 0 mm 5 m/s 748 mmHg 65%
20:00 +35°C° 0 mm 4 m/s 748 mmHg 69%
21:00 +34°C° 0 mm 3 m/s 748 mmHg 72%
22:00 +32°C° 0 mm 2 m/s 749 mmHg 75%
23:00 +33°C° 0 mm 3 m/s 749 mmHg 77%

20 Junho, Domingo

Tempo Temperatura Precipitação Vento Pressão Humidade
00:00 +33°C° 0 mm 4 m/s 749 mmHg 78%
01:00 +33°C° 0 mm 4 m/s 749 mmHg 80%
02:00 +33°C° 0 mm 3 m/s 749 mmHg 81%
03:00 +31°C° 0 mm 3 m/s 749 mmHg 82%
04:00 +31°C° 0 mm 2 m/s 749 mmHg 83%
05:00 +32°C° 0 mm 2 m/s 749 mmHg 79%
06:00 +32°C° 0 mm 2 m/s 750 mmHg 75%
07:00 +34°C° 0 mm 2 m/s 750 mmHg 70%
08:00 +36°C° 0 mm 2 m/s 750 mmHg 57%
09:00 +39°C° 0 mm 3 m/s 750 mmHg 43%
10:00 +43°C° 0 mm 3 m/s 750 mmHg 29%
11:00 +43°C° 0 mm 4 m/s 750 mmHg 27%
12:00 +44°C° 0 mm 4 m/s 750 mmHg 25%
13:00 +46°C° 0 mm 5 m/s 749 mmHg 23%
14:00 +45°C° 0 mm 5 m/s 749 mmHg 26%
15:00 +45°C° 0 mm 5 m/s 748 mmHg 29%
16:00 +43°C° 0 mm 5 m/s 748 mmHg 33%
17:00 +41°C° 0 mm 5 m/s 748 mmHg 41%
18:00 +39°C° 0 mm 5 m/s 748 mmHg 49%
19:00 +36°C° 0 mm 4 m/s 748 mmHg 57%
20:00 +35°C° 0 mm 4 m/s 748 mmHg 61%
21:00 +35°C° 0 mm 3 m/s 748 mmHg 65%
22:00 +34°C° 0 mm 3 m/s 749 mmHg 69%
23:00 +34°C° 0 mm 3 m/s 749 mmHg 70%
Mostrar mais